Location: Unspecified
(50.7693°N, 0.0000°E)
Time: 17:47:43
(UTC+00:00)

deb Explorer IX - Pass Details

Date: 26 June 2019
Orbit: 539 x 1111 km, 38.8° (Epoch: 16 August)

Event Time Altitude Azimuth Distance (km) Brightness Sun altitude
Rises 13:35:22 0° 241° (WSW) 3,732 ? 57.3°
Reaches altitude 10° 13:38:16 10° 231° (SW) 2,849 ? 56.9°
Maximum altitude 13:44:16 31° 173° (S) 1,829 ? 56.3°
Drops below altitude 10° 13:50:30 10° 115° (ESE) 2,974 ? 55.6°
Sets 13:53:36 0° 106° (ESE) 3,919 ? 55.2°
